Total_Precipitation_Accumulation
0.03 0.04 0.09 0.12 0.14 0.17 0.20 0.26 0.33 0.29 0.27 0.36 0.47 0.69 0.95 1.11 1.33 1.56 1.53 1.54 1.68 1.82 2.12 2.28 2.38 2.55 2.86 3.13 3.34 3.61 3.90 4.28 4.56 5.00 5.38 5.58 5.77 5.97 6.05 6.00 5.97 5.94 5.88 6.03
0.06 0.07 0.08 0.09 0.09 0.11 0.15 0.22 0.31 0.34 0.33 0.35 0.51 0.73 0.98 1.11 1.27 1.55 1.65 1.69 1.72 1.85 2.05 2.37 2.70 3.10 3.35 3.58 3.70 3.96 4.30 4.60 4.78 5.18 5.73 6.25 6.49 6.58 6.59 6.62 6.77 6.76 6.74 6.92
0.08 0.08 0.08 0.07 0.08 0.08 0.13 0.18 0.22 0.30 0.37 0.43 0.64 1.08 1.32 1.37 1.52 1.68 1.71 1.83 1.84 1.92 2.17 2.48 2.96 3.30 3.43 3.57 3.70 3.91 4.46 4.95 5.39 5.83 6.41 6.92 7.28 7.31 7.16 6.85 6.96 7.09 6.88 6.93
0.08 0.08 0.06 0.07 0.07 0.09 0.14 0.15 0.18 0.25 0.40 0.57 0.65 1.37 1.77 1.89 1.91 1.83 1.85 1.93 1.89 1.90 2.14 2.49 2.80 3.11 3.30 3.40 3.71 4.02 4.48 5.14 5.67 5.95 6.58 7.28 7.53 7.79 7.84 7.64 7.35 7.16 6.88 6.70
0.08 0.07 0.09 0.09 0.09 0.09 0.12 0.13 0.19 0.24 0.33 0.52 0.58 1.11 1.90 2.10 2.27 2.04 1.98 1.99 1.81 1.77 1.93 2.31 2.59 2.92 3.32 3.41 3.53 3.78 4.35 4.97 5.71 6.35 6.86 7.49 7.95 8.23 8.16 7.73 7.26 6.73 6.38 5.91
0.08 0.07 0.08 0.08 0.07 0.07 0.12 0.17 0.27 0.33 0.44 0.74 0.71 1.07 1.99 2.29 2.48 2.55 2.23 1.99 1.79 1.75 1.82 2.02 2.33 2.64 2.97 3.02 3.27 3.56 4.04 4.77 5.48 6.06 6.65 7.20 7.61 7.75 7.44 6.90 6.36 5.98 5.61 5.07
0.14 0.11 0.08 0.07 0.10 0.11 0.15 0.32 0.67 0.88 1.00 0.97 0.75 1.11 1.95 2.15 2.00 2.11 2.17 2.19 1.96 1.75 1.84 2.09 2.34 2.65 2.80 2.86 3.12 3.50 4.04 4.68 5.08 5.54 6.05 6.39 6.60 6.73 6.70 6.40 5.94 5.56 5.04 4.56
0.27 0.24 0.11 0.07 0.11 0.16 0.16 0.33 0.87 1.16 1.15 1.14 1.12 1.61 2.28 2.12 1.78 1.78 1.92 2.07 1.88 1.80 1.99 2.35 2.46 2.61 2.81 2.87 3.11 3.49 3.95 4.38 4.60 4.79 5.18 5.49 5.61 5.63 5.49 5.34 4.94 4.64 4.27 3.95
0.31 0.31 0.14 0.08 0.10 0.12 0.22 0.29 0.46 0.69 0.77 1.16 1.66 2.19 2.80 2.63 2.06 1.86 1.91 1.95 1.99 1.95 2.06 2.35 2.52 2.63 2.74 2.79 2.99 3.20 3.51 3.73 3.98 4.13 4.34 4.52 4.54 4.41 4.25 4.07 3.81 3.60 3.41 3.07
0.30 0.31 0.21 0.14 0.14 0.16 0.22 0.32 0.47 0.77 1.15 1.54 1.88 2.64 3.49 3.32 2.64 2.18 2.06 2.01 2.02 2.00 2.05 2.26 2.38 2.52 2.60 2.58 2.68 2.79 3.04 3.21 3.44 3.58 3.57 3.46 3.50 3.42 3.25 3.03 2.88 2.69 2.52 2.42
0.39 0.43 0.31 0.23 0.25 0.28 0.29 0.38 0.57 0.76 0.88 1.49 2.19 3.13 3.31 3.35 3.03 2.62 2.21 1.99 1.95 1.95 1.97 2.09 2.26 2.29 2.29 2.28 2.34 2.48 2.66 2.86 3.02 3.05 3.09 3.02 2.91 2.72 2.59 2.42 2.28 2.21 2.14 2.12
0.40 0.53 0.50 0.35 0.30 0.25 0.29 0.41 0.62 1.00 1.05 1.24 1.93 3.16 3.15 3.38 3.27 2.93 2.55 2.24 2.10 2.03 1.91 1.86 1.93 1.98 2.02 2.11 2.22 2.35 2.39 2.48 2.56 2.67 2.72 2.73 2.66 2.49 2.29 2.14 2.05 2.08 2.07 2.04
0.39 0.64 0.92 0.94 0.80 0.46 0.36 0.37 0.48 0.67 0.97 1.35 2.00 3.15 3.19 3.15 3.12 3.11 2.86 2.49 2.24 2.12 1.94 1.88 1.87 1.86 1.87 2.09 2.24 2.22 2.28 2.35 2.42 2.57 2.59 2.60 2.63 2.47 2.25 2.14 2.18 2.21 2.10 2.06
0.32 0.65 1.10 1.51 1.44 0.85 0.61 0.47 0.50 0.70 1.16 1.38 1.75 2.50 2.81 2.90 3.08 3.31 3.22 2.69 2.23 2.12 2.05 2.10 2.14 2.08 2.01 2.08 2.26 2.28 2.39 2.45 2.49 2.51 2.44 2.26 2.18 2.16 2.16 2.11 2.12 2.11 2.03 2.01
0.42 0.73 0.67 0.63 0.67 0.67 0.63 0.61 0.63 0.74 0.85 1.26 1.71 2.26 2.72 2.93 2.92 2.96 2.82 2.59 2.22 2.12 2.23 2.21 2.13 2.12 2.04 2.02 2.21 2.37 2.42 2.40 2.64 2.69 2.56 2.38 2.18 2.17 2.18 2.11 2.06 2.05 1.99 1.84
0.47 0.73 0.71 0.68 0.56 0.66 0.70 0.72 0.81 0.91 0.99 1.24 1.78 2.52 2.83 2.98 2.91 2.92 2.82 2.65 2.57 2.47 2.39 2.36 2.34 2.32 2.24 2.14 2.22 2.44 2.47 2.44 2.58 2.58 2.64 2.66 2.58 2.58 2.45 2.25 2.16 2.14 2.11 2.03
0.50 0.80 1.06 1.07 0.70 0.93 1.38 1.06 1.02 1.20 1.30 1.58 2.23 2.56 2.50 2.60 2.83 3.00 3.05 2.93 2.85 2.81 2.66 2.63 2.66 2.60 2.60 2.56 2.50 2.52 2.48 2.44 2.48 2.59 2.67 2.67 2.65 2.59 2.51 2.30 2.24 2.28 2.22 2.13
0.55 0.91 1.21 1.27 1.37 2.09 1.88 1.15 1.12 1.38 1.60 1.79 2.08 2.17 2.22 2.24 2.38 2.52 2.66 2.81 2.81 2.75 2.67 2.69 2.80 2.78 2.77 2.68 2.62 2.55 2.54 2.62 2.70 2.76 2.74 2.63 2.50 2.49 2.44 2.44 2.42 2.35 2.26 2.15
0.41 0.86 1.34 1.51 1.88 2.13 1.92 1.25 1.29 1.80 2.37 1.99 1.98 1.87 1.70 1.68 1.99 2.50 2.56 2.58 2.76 2.78 2.74 2.70 2.67 2.66 2.71 2.65 2.57 2.53 2.54 2.60 2.65 2.67 2.56 2.47 2.48 2.50 2.33 2.32 2.31 2.29 2.19 2.06
0.45 0.70 1.34 1.65 2.25 2.64 2.39 1.31 1.09 1.69 2.98 2.26 1.97 1.94 1.79 1.89 2.45 2.72 2.51 2.47 2.46 2.45 2.48 2.39 2.24 2.18 2.37 2.53 2.53 2.45 2.40 2.42 2.41 2.27 2.09 2.02 2.14 2.17 2.01 1.91 1.90 1.94 1.99 1.97
1.09 1.23 1.52 1.84 2.41 2.62 1.61 1.01 1.22 2.59 3.18 2.39 1.98 1.88 1.86 2.15 2.41 2.18 1.96 2.06 2.11 2.07 1.98 1.92 1.89 1.97 2.11 2.17 2.22 2.27 2.19 2.24 2.16 1.98 1.88 1.90 1.89 1.87 1.83 1.84 1.87 1.82 1.74 1.78
1.41 1.62 1.74 1.99 2.60 2.75 1.40 1.21 1.94 2.38 1.97 1.88 1.82 1.75 1.71 1.68 1.60 1.59 1.64 1.65 1.66 1.69 1.66 1.61 1.72 1.84 1.89 1.83 1.83 1.95 1.98 2.00 1.92 1.83 1.75 1.80 1.78 1.67 1.75 1.92 1.87 1.82 1.82 1.78
1.46 1.63 1.82 2.12 2.54 2.18 1.48 1.46 1.61 1.63 1.62 1.53 1.51 1.45 1.41 1.39 1.22 1.27 1.46 1.38 1.31 1.34 1.41 1.47 1.52 1.65 1.77 1.77 1.79 1.85 1.83 1.75 1.76 1.81 1.74 1.67 1.61 1.70 1.78 1.90 1.85 1.77 1.73 1.60
1.53 1.26 1.51 1.79 1.89 1.67 1.49 1.43 1.37 1.26 1.24 1.17 1.27 1.42 1.37 1.34 1.33 1.36 1.40 1.32 1.24 1.28 1.30 1.38 1.44 1.49 1.63 1.61 1.62 1.74 1.68 1.63 1.78 1.89 1.81 1.68 1.59 1.58 1.62 1.70 1.71 1.62 1.54 1.44
1.51 1.49 1.64 1.80 1.74 1.66 1.66 1.43 1.30 1.21 1.10 1.08 1.17 1.25 1.30 1.35 1.39 1.38 1.35 1.31 1.32 1.43 1.45 1.44 1.48 1.48 1.46 1.45 1.46 1.46 1.49 1.61 1.80 1.78 1.63 1.52 1.42 1.37 1.40 1.41 1.40 1.40 1.29 1.24
1.22 1.49 1.77 1.90 1.65 1.68 1.79 1.51 1.25 1.21 1.14 1.16 1.18 1.23 1.36 1.41 1.49 1.43 1.35 1.33 1.35 1.40 1.40 1.46 1.41 1.32 1.32 1.39 1.42 1.34 1.28 1.41 1.66 1.67 1.44 1.29 1.21 1.19 1.12 1.10 1.12 1.13 1.12 1.10